Time,TemperatureF,DewpointF,PressureIn,WindDirection,WindDirectionDegrees,WindSpeedMPH,WindSpeedGustMPH,Humidity,HourlyPrecipIn,Conditions,Clouds,dailyrainin,SolarRadiationWatts/m^2,SoftwareType,DateUTC
2013-05-01 00:03:00,52.0,48.0,-100.00,ESE,105,9.0,14.0,86,0.00,,,-99.99,0.000000,,2013-05-01 04:03:00,
2013-05-01 00:12:00,52.0,48.0,-100.00,ESE,105,9.0,14.0,86,0.00,,,-99.99,0.000000,,2013-05-01 04:12:00,
2013-05-01 00:32:00,52.0,49.0,-100.00,East,97,9.0,13.0,88,0.00,,,0.00,0.000000,,2013-05-01 04:32:00,
2013-05-01 00:43:00,52.0,49.0,-100.00,East,97,9.0,13.0,88,0.00,,,0.00,0.000000,,2013-05-01 04:43:00,
2013-05-01 00:52:00,52.0,49.0,-100.00,East,97,9.0,13.0,88,0.00,,,0.00,0.000000,,2013-05-01 04:52:00,
2013-05-01 01:02:00,52.0,49.0,-100.00,East,97,9.0,13.0,88,0.00,,,0.00,0.000000,,2013-05-01 05:02:00,
2013-05-01 01:12:00,52.0,49.0,-100.00,East,97,9.0,13.0,88,0.00,,,0.00,0.000000,,2013-05-01 05:12:00,
2013-05-01 01:42:00,52.0,49.0,-100.00,East,99,10.0,14.0,89,0.00,,,-99.99,0.000000,,2013-05-01 05:42:00,
2013-05-01 01:52:00,52.0,49.0,-100.00,East,99,10.0,14.0,89,0.00,,,-99.99,0.000000,,2013-05-01 05:52:00,
2013-05-01 02:02:00,52.0,49.0,-100.00,East,99,10.0,14.0,89,0.00,,,-99.99,0.000000,,2013-05-01 06:02:00,
2013-05-01 02:12:00,52.0,49.0,-100.00,East,99,10.0,14.0,89,0.00,,,-99.99,0.000000,,2013-05-01 06:12:00,
2013-05-01 02:42:00,52.0,49.0,-100.00,East,97,10.0,14.0,90,0.00,,,0.00,0.000000,,2013-05-01 06:42:00,
2013-05-01 02:52:00,52.0,49.0,-100.00,East,97,10.0,14.0,90,0.00,,,0.00,0.000000,,2013-05-01 06:52:00,
2013-05-01 03:01:00,52.0,49.0,-100.00,East,97,10.0,14.0,90,0.00,,,0.00,0.000000,,2013-05-01 07:01:00,
2013-05-01 03:11:00,52.0,49.0,-100.00,East,97,10.0,14.0,90,0.00,,,0.00,0.000000,,2013-05-01 07:11:00,
2013-05-01 03:42:00,53.0,50.0,-100.00,East,99,6.0,13.0,91,0.00,,,0.00,0.000000,,2013-05-01 07:42:00,
2013-05-01 03:52:00,53.0,50.0,-100.00,East,99,6.0,13.0,91,0.00,,,0.00,0.000000,,2013-05-01 07:52:00,
2013-05-01 04:02:00,53.0,50.0,-100.00,East,99,6.0,13.0,91,0.00,,,0.00,0.000000,,2013-05-01 08:02:00,
2013-05-01 04:12:00,53.0,50.0,-100.00,East,99,6.0,13.0,91,0.00,,,0.00,0.000000,,2013-05-01 08:12:00,
2013-05-01 04:42:00,50.0,49.0,-100.00,NNW,348,2.0,8.0,95,0.00,,,0.00,0.000000,,2013-05-01 08:42:00,
2013-05-01 04:53:00,50.0,49.0,-100.00,NNW,348,2.0,8.0,95,0.00,,,0.00,0.000000,,2013-05-01 08:53:00,
2013-05-01 05:02:00,50.0,49.0,-100.00,NNW,348,2.0,8.0,95,0.00,,,0.00,0.000000,,2013-05-01 09:02:00,
2013-05-01 05:12:00,50.0,49.0,-100.00,NNW,348,2.0,8.0,95,0.00,,,0.00,0.000000,,2013-05-01 09:12:00,
2013-05-01 05:43:00,49.0,48.0,-100.00,North,349,2.0,7.0,97,0.00,,,-99.99,0.000000,,2013-05-01 09:43:00,
2013-05-01 05:53:00,49.0,48.0,-100.00,North,349,2.0,7.0,97,0.00,,,-99.99,0.000000,,2013-05-01 09:53:00,
2013-05-01 06:03:00,49.0,48.0,-100.00,North,349,2.0,7.0,97,0.00,,,-99.99,0.000000,,2013-05-01 10:03:00,
2013-05-01 06:12:00,49.0,48.0,-100.00,North,349,2.0,7.0,97,0.00,,,-99.99,0.000000,,2013-05-01 10:12:00,
2013-05-01 06:42:00,49.0,48.0,-100.00,ENE,71,3.0,6.0,95,0.00,,,0.00,0.000000,,2013-05-01 10:42:00,
2013-05-01 06:53:00,49.0,48.0,-100.00,ENE,71,3.0,6.0,95,0.00,,,0.00,0.000000,,2013-05-01 10:53:00,
2013-05-01 07:03:00,49.0,48.0,-100.00,ENE,71,3.0,6.0,95,0.00,,,0.00,0.000000,,2013-05-01 11:03:00,
2013-05-01 07:11:00,49.0,48.0,-100.00,ENE,71,3.0,6.0,95,0.00,,,0.00,0.000000,,2013-05-01 11:11:00,
2013-05-01 07:42:00,50.0,49.0,-100.00,ESE,112,6.0,9.0,98,0.00,,,0.00,20.000000,,2013-05-01 11:42:00,
2013-05-01 07:52:00,50.0,49.0,-100.00,ESE,112,6.0,9.0,98,0.00,,,0.00,20.000000,,2013-05-01 11:52:00,
2013-05-01 08:02:00,50.0,49.0,-100.00,ESE,112,6.0,9.0,98,0.00,,,0.00,20.000000,,2013-05-01 12:02:00,
2013-05-01 08:11:00,50.0,49.0,-100.00,ESE,112,6.0,9.0,98,0.00,,,0.00,20.000000,,2013-05-01 12:11:00,
2013-05-01 08:42:00,53.0,50.0,-100.00,ESE,121,6.0,10.0,91,0.00,,,-99.99,109.000000,,2013-05-01 12:42:00,
2013-05-01 08:52:00,53.0,50.0,-100.00,ESE,121,6.0,10.0,91,0.00,,,-99.99,109.000000,,2013-05-01 12:52:00,
2013-05-01 09:01:00,53.0,50.0,-100.00,ESE,121,6.0,10.0,91,0.00,,,-99.99,109.000000,,2013-05-01 13:01:00,
2013-05-01 09:11:00,53.0,50.0,-100.00,ESE,121,6.0,10.0,91,0.00,,,-99.99,109.000000,,2013-05-01 13:11:00,
2013-05-01 09:42:00,58.0,52.0,-100.00,SE,126,7.0,11.0,79,0.00,,,0.00,348.000000,,2013-05-01 13:42:00,
2013-05-01 09:52:00,58.0,52.0,-100.00,SE,126,7.0,11.0,79,0.00,,,0.00,348.000000,,2013-05-01 13:52:00,
2013-05-01 10:02:00,58.0,52.0,-100.00,SE,126,7.0,11.0,79,0.00,,,0.00,348.000000,,2013-05-01 14:02:00,
2013-05-01 10:11:00,58.0,52.0,-100.00,SE,126,7.0,11.0,79,0.00,,,0.00,348.000000,,2013-05-01 14:11:00,
2013-05-01 10:42:00,63.0,53.0,-100.00,NW,315,4.0,6.0,69,0.00,,,-99.99,442.000000,,2013-05-01 14:42:00,
2013-05-01 10:52:00,63.0,53.0,-100.00,NW,315,4.0,6.0,69,0.00,,,-99.99,442.000000,,2013-05-01 14:52:00,
2013-05-01 11:01:00,63.0,53.0,-100.00,NW,315,4.0,6.0,69,0.00,,,-99.99,442.000000,,2013-05-01 15:01:00,
2013-05-01 11:11:00,63.0,53.0,-100.00,NW,315,4.0,6.0,69,0.00,,,-99.99,442.000000,,2013-05-01 15:11:00,
2013-05-01 11:43:00,66.0,53.0,-100.00,NW,318,4.0,10.0,63,0.00,,,-99.99,718.000000,,2013-05-01 15:43:00,
2013-05-01 11:53:00,66.0,53.0,-100.00,NW,318,4.0,10.0,63,0.00,,,-99.99,718.000000,,2013-05-01 15:53:00,
2013-05-01 12:03:00,66.0,53.0,-100.00,NW,318,4.0,10.0,63,0.00,,,-99.99,718.000000,,2013-05-01 16:03:00,
2013-05-01 12:12:00,66.0,53.0,-100.00,NW,318,4.0,10.0,63,0.00,,,-99.99,718.000000,,2013-05-01 16:12:00,
2013-05-01 12:42:00,70.0,55.0,-100.00,NE,36,3.0,9.0,59,0.00,,,0.00,880.000000,,2013-05-01 16:42:00,
2013-05-01 12:53:00,70.0,55.0,-100.00,NE,36,3.0,9.0,59,0.00,,,0.00,880.000000,,2013-05-01 16:53:00,
2013-05-01 13:02:00,70.0,55.0,-100.00,NE,36,3.0,9.0,59,0.00,,,0.00,880.000000,,2013-05-01 17:02:00,
2013-05-01 13:12:00,70.0,55.0,-100.00,NE,36,3.0,9.0,59,0.00,,,0.00,880.000000,,2013-05-01 17:12:00,
2013-05-01 13:42:00,68.0,53.0,-100.00,NW,314,10.0,17.0,58,0.00,,,0.00,954.000000,,2013-05-01 17:42:00,
2013-05-01 13:52:00,68.0,53.0,-100.00,NW,314,10.0,17.0,58,0.00,,,0.00,954.000000,,2013-05-01 17:52:00,
2013-05-01 14:02:00,68.0,53.0,-100.00,NW,314,10.0,17.0,58,0.00,,,0.00,954.000000,,2013-05-01 18:02:00,
2013-05-01 14:11:00,68.0,53.0,-100.00,NW,314,10.0,17.0,58,0.00,,,0.00,954.000000,,2013-05-01 18:11:00,
2013-05-01 14:42:00,64.0,47.0,-100.00,NNW,335,9.0,19.0,55,0.00,,,0.00,1005.000000,,2013-05-01 18:42:00,
2013-05-01 14:52:00,64.0,47.0,-100.00,NNW,335,9.0,19.0,55,0.00,,,0.00,1005.000000,,2013-05-01 18:52:00,
2013-05-01 15:02:00,64.0,47.0,-100.00,NNW,335,9.0,19.0,55,0.00,,,0.00,1005.000000,,2013-05-01 19:02:00,
2013-05-01 15:11:00,64.0,47.0,-100.00,NNW,335,9.0,19.0,55,0.00,,,0.00,1005.000000,,2013-05-01 19:11:00,
2013-05-01 15:43:00,62.0,40.0,-100.00,NNW,343,11.0,18.0,44,0.00,,,0.00,966.000000,,2013-05-01 19:43:00,
2013-05-01 15:52:00,62.0,40.0,-100.00,NNW,343,11.0,18.0,44,0.00,,,0.00,966.000000,,2013-05-01 19:52:00,
2013-05-01 16:02:00,62.0,40.0,-100.00,NNW,343,11.0,18.0,44,0.00,,,0.00,966.000000,,2013-05-01 20:02:00,
2013-05-01 16:11:00,62.0,40.0,-100.00,NNW,343,11.0,18.0,44,0.00,,,0.00,966.000000,,2013-05-01 20:11:00,
2013-05-01 16:42:00,62.0,39.0,-100.00,NW,321,9.0,19.0,42,0.00,,,0.00,902.000000,,2013-05-01 20:42:00,
2013-05-01 16:52:00,62.0,39.0,-100.00,NW,321,9.0,19.0,42,0.00,,,0.00,902.000000,,2013-05-01 20:52:00,
2013-05-01 17:01:00,62.0,39.0,-100.00,NW,321,9.0,19.0,42,0.00,,,0.00,902.000000,,2013-05-01 21:01:00,
2013-05-01 17:11:00,62.0,39.0,-100.00,NW,321,9.0,19.0,42,0.00,,,0.00,902.000000,,2013-05-01 21:11:00,
2013-05-01 17:43:00,61.0,38.0,-100.00,NNW,334,9.0,18.0,43,0.00,,,0.00,770.000000,,2013-05-01 21:43:00,
2013-05-01 17:53:00,61.0,38.0,-100.00,NNW,334,9.0,18.0,43,0.00,,,0.00,770.000000,,2013-05-01 21:53:00,
2013-05-01 18:03:00,61.0,38.0,-100.00,NNW,334,9.0,18.0,43,0.00,,,0.00,770.000000,,2013-05-01 22:03:00,
2013-05-01 18:12:00,61.0,38.0,-100.00,NNW,334,9.0,18.0,43,0.00,,,0.00,770.000000,,2013-05-01 22:12:00,
2013-05-01 18:42:00,57.0,36.0,-100.00,NNW,342,12.0,23.0,46,0.00,,,0.00,572.000000,,2013-05-01 22:42:00,
2013-05-01 18:53:00,57.0,36.0,-100.00,NNW,342,12.0,23.0,46,0.00,,,0.00,572.000000,,2013-05-01 22:53:00,
2013-05-01 19:02:00,57.0,36.0,-100.00,NNW,342,12.0,23.0,46,0.00,,,0.00,572.000000,,2013-05-01 23:02:00,
2013-05-01 19:12:00,57.0,36.0,-100.00,NNW,342,12.0,23.0,46,0.00,,,0.00,572.000000,,2013-05-01 23:12:00,
2013-05-01 19:42:00,53.0,36.0,-100.00,NNW,330,11.0,25.0,53,0.00,,,0.00,349.000000,,2013-05-01 23:42:00,
2013-05-01 19:52:00,53.0,36.0,-100.00,NNW,330,11.0,25.0,53,0.00,,,0.00,349.000000,,2013-05-01 23:52:00,
2013-05-01 20:01:00,53.0,36.0,-100.00,NNW,330,11.0,25.0,53,0.00,,,0.00,349.000000,,2013-05-02 00:01:00,
2013-05-01 20:11:00,53.0,36.0,-100.00,NNW,330,11.0,25.0,53,0.00,,,0.00,349.000000,,2013-05-02 00:11:00,
2013-05-01 20:42:00,48.0,34.0,-100.00,NNW,340,11.0,22.0,57,0.00,,,0.00,144.000000,,2013-05-02 00:42:00,
2013-05-01 20:52:00,48.0,34.0,-100.00,NNW,340,11.0,22.0,57,0.00,,,0.00,144.000000,,2013-05-02 00:52:00,
2013-05-01 21:01:00,48.0,34.0,-100.00,NNW,340,11.0,22.0,57,0.00,,,0.00,144.000000,,2013-05-02 01:01:00,
2013-05-01 21:11:00,48.0,34.0,-100.00,NNW,340,11.0,22.0,57,0.00,,,0.00,144.000000,,2013-05-02 01:11:00,
2013-05-01 21:42:00,44.0,33.0,-100.00,NW,326,10.0,24.0,65,0.00,,,0.00,13.000000,,2013-05-02 01:42:00,
2013-05-01 21:52:00,44.0,33.0,-100.00,NW,326,10.0,24.0,65,0.00,,,0.00,13.000000,,2013-05-02 01:52:00,
2013-05-01 22:02:00,44.0,33.0,-100.00,NW,326,10.0,24.0,65,0.00,,,0.00,13.000000,,2013-05-02 02:02:00,
2013-05-01 22:12:00,44.0,33.0,-100.00,NW,326,10.0,24.0,65,0.00,,,0.00,13.000000,,2013-05-02 02:12:00,
2013-05-01 23:01:00,43.0,34.0,-100.00,NW,325,10.0,18.0,69,0.00,,,-99.99,0.000000,,2013-05-02 03:01:00,
2013-05-01 23:11:00,43.0,34.0,-100.00,NW,325,10.0,18.0,69,0.00,,,-99.99,0.000000,,2013-05-02 03:11:00,
2013-05-01 23:43:00,41.0,33.0,-100.00,NNW,328,9.0,19.0,74,0.00,,,0.00,0.000000,,2013-05-02 03:43:00,
2013-05-01 23:53:00,41.0,33.0,-100.00,NNW,328,9.0,19.0,74,0.00,,,0.00,0.000000,,2013-05-02 03:53:00,